Regional Weather Roundup
Issued by NWS

Home | Current Version | Previous Version | Graphics & Text | Print | Product List | Glossary On
Versions: 1 2 3 4 5 6 7 8 9 10 11 12 13 14 15 16 17 18 19 20 21 22 23 24 25 26 27 28 29 30 31 32 33 34 35 36 37 38 39 40 41 42 43 44 45 46 47 48 49 50
000
ASUS45 KBOU 280007
RWRCO

WEATHER ROUNDUP FOR COLORADO
NATIONAL WEATHER SERVICE DENVER/BOULDER CO
600 PM MDT MON MAR 27 2017

NOTE: "FAIR" INDICATES FEW OR NO CLOUDS BELOW 12000 FEET WITH NO
SIGNIFICANT WEATHER AND/OR OBSTRUCTIONS TO VISIBILITY.

COZ001>005-013-030-031-280100-
...NORTHWEST COLORADO...

CITY           SKY/WX    TMP DP  RH WIND       PRES   REMARKS
CRAIG          CLOUDY    45  36  70 N9        29.83F
HAYDEN         FAIR      43  32  65 N12       29.84S
MEEKER         CLOUDY    48  31  51 CALM      29.81S
MOUNT WERNER   NOT AVBL
STEAMBOAT SPGS CLOUDY    40  35  81 N3        29.86S
WALDEN         NOT AVBL
$$

COZ006>008-011-280100-
...WEST CENTRAL VALLEYS...

CITY           SKY/WX    TMP DP  RH WIND       PRES   REMARKS
GRAND JUNCTION PTSUNNY   59  28  30 CALM      29.72F
MONTROSE       CLOUDY    55  31  39 W18G24    29.78F
EAGLE          PTSUNNY   55  23  28 CALM      29.80F
RIFLE          CLOUDY    58  26  29 W9        29.75F
DELTA          CLOUDY    56  33  41 SW13G28   29.78S
NUCLA          CLOUDY    52  32  46 NE3       29.83F
$$

COZ017>023-064>068-280100-
...SOUTHWEST COLORADO...

CITY           SKY/WX    TMP DP  RH WIND       PRES   REMARKS
DURANGO        PTSUNNY   51  28  41 S15G23    29.86S
CORTEZ         CLOUDY    55  30  38 SE9       29.80F
PAGOSA SPRINGS CLOUDY    45  32  60 S14G21    29.93S
TELLURIDE      PTSUNNY   40  30  66 S13       29.91S
WOLF CREEK PAS HVY SNOW  25  25 100 S13       30.04S VSB<1/4 WCI  13
$$

COZ009-010-012-014-032>034-037-058>063-280100-
...CENTRAL COLORADO...

CITY           SKY/WX    TMP DP  RH WIND       PRES   REMARKS
ASPEN          PTSUNNY   50  21  32 N7        29.79F
BUENA VISTA    FAIR      53  22  30 S8        29.82F
COPPER MTN     CLOUDY    34  21  60 MISG      29.96F
BERTHOUD PASS  HVY SNOW  23  12  63 SE9       29.97F VSB<1/4 WCI  13
COTTONWOOD PAS FAIR      48  18  29 S5        29.89F
GUNNISON       FAIR      51  25  36 SE7       29.82F
KREMMLING      CLOUDY    50  36  57 E10       29.86S
LEADVILLE      FAIR      42  16  34 S10       29.86F
MONARCH PASS   PTSUNNY   34  21  60 S7        30.07F WCI  28
SALIDA         PTSUNNY   53  30  40 SE12G21   29.88F
SUNLIGHT       CLOUDY    32  23  69 SW8       29.95S WCI  25
WILKERSON PASS PTSUNNY   34  27  75 SW8       29.98S WCI  27
$$

COZ069>075-280100-
...SAN LUIS VALLEY/SANGRE DE CRISTO MOUNTAINS...

CITY           SKY/WX    TMP DP  RH WIND       PRES   REMARKS
ALAMOSA        CLOUDY    52  26  36 SW16      29.85R
LA VETA PASS   NOT AVBL
SAGUACHE       CLOUDY    54  23  30 S9        29.82F
$$

COZ035-036-038>040-280100-
...NORTHERN COLORADO FRONT RANGE...

CITY           SKY/WX    TMP DP  RH WIND       PRES   REMARKS
DENVER INTL AP PTSUNNY   58  33  39 SE18      29.78R
DMNS CITY PARK   N/A     58  30  34 SE9       29.77R
AURORA         PTSUNNY   57  33  40 S18       29.78F
FRONT RANGE AP PTSUNNY   59  36  41 SE18G28   29.80S
ERIE MUNI ARPT CLOUDY    60  28  29 S7        29.76R
BOULDER MUN AP CLOUDY    59  30  33 W6        29.76S
CENTENNIAL     LGT RAIN  51  37  58 S20G33    29.80R
BROOMFIELD     PTSUNNY   57  30  35 CALM      29.78S
FORT COLLINS   FAIR      60  30  32 E7        29.76F
LONGMONT       CLOUDY    62  30  30 W12       29.77F
$$

COZ041-046-047-076>085-087-088-280100-
...PIKES PEAK/PALMER DIVIDE AND SOUTHERN FOOTHILLS...

CITY           SKY/WX    TMP DP  RH WIND       PRES   REMARKS
COLO. SPRINGS  PTSUNNY   56  30  37 S14       29.82F
A. F. ACADEMY  NOT AVBL
SCHRIEVER AFB  PTSUNNY   55  30  39 SE22G36   29.83F
ELLICOTT       NOT AVBL
FALCON         PTSUNNY   53  29  40 S16G22    29.86S
FORT CARSON    CLOUDY    57  31  37 SE10      29.81S
LIMON          FAIR      56  34  43 SE22      29.82F
MONUMENT HILL  FAIR      50  32  50 S21G30    29.84F
TRINIDAD       CLOUDY    62  33  33 S12       29.77F
$$

COZ042>045-048>051-090-091-280100-
...NORTHEAST COLORADO...

CITY           SKY/WX    TMP DP  RH WIND       PRES   REMARKS
GREELEY ARPT   PTSUNNY   62  33  33 SE17      29.76F
AKRON          FAIR      59  31  34 S15G23    29.82R
BURLINGTON     FAIR      60  38  43 SE14      29.84F
WRAY           FAIR      64  30  27 S10G18    29.82F
STERLING       PTSUNNY   63  32  31 S15       29.78F
HOLYOKE        FAIR      64  32  29 SE17      29.82S
FORT MORGAN    FAIR      63  29  28 SE16G23   29.79F
$$

COZ086-089-092>099-280100-
...SOUTHEAST COLORADO...

CITY           SKY/WX    TMP DP  RH WIND       PRES   REMARKS
PUEBLO         FAIR      66  30  26 SE12      29.74F
LA JUNTA       PTSUNNY   67  32  27 SE21      29.73F
LAMAR          FAIR      67  33  28 SE20G29   29.77S
SPRINGFIELD      N/A     63  32  31 S21G26    29.81F
$$



USA.gov is the U.S. government's official web portal to all federal, state and local government web resources and services.